Wind_Speed
39 41 44 47 50 53 54 56 57 58 58 59 59 60 61 62 62 63 63 63 63 64 66 66 67 66 66 67 67 69 70 72 72 70 70 68 65 61 56 54 52 50 48
40 43 47 51 54 56 57 59 60 61 62 63 63 64 64 64 64 63 62 62 63 63 63 63 63 64 64 65 66 68 69 70 69 66 61 57 54 50 47 45 43 40 39
43 47 51 54 56 58 60 62 63 64 65 65 65 64 63 63 62 62 62 62 61 61 61 61 60 61 62 63 65 66 65 64 62 57 51 47 43 41 38 35 33 32 31
49 51 53 55 58 60 62 63 64 64 64 63 62 61 61 61 61 60 60 60 61 61 59 58 58 59 61 62 61 60 58 54 50 47 41 37 34 33 30 28 28 28 27
54 54 54 56 57 59 60 61 61 61 60 59 59 59 59 59 59 59 60 59 56 55 55 55 56 58 58 57 54 51 47 43 39 36 32 28 26 25 24 24 23 24 24
56 55 55 56 56 56 57 57 57 57 57 57 58 57 57 58 58 57 55 53 52 52 53 54 54 53 51 48 44 41 37 34 29 25 22 20 19 19 19 19 19 18 18
54 54 53 53 52 52 53 54 54 53 54 55 55 56 56 55 54 52 50 50 51 51 51 50 48 45 41 38 34 31 29 25 21 17 16 15 15 16 16 16 16 16 16
52 51 50 49 49 49 50 50 50 51 52 53 53 53 52 50 48 48 48 49 49 48 46 43 40 35 32 28 25 23 21 18 16 14 14 14 14 14 14 14 13 13 14
47 45 44 44 45 46 47 48 49 49 50 50 49 47 46 45 45 46 46 45 44 41 38 35 31 27 24 21 19 17 14 13 12 12 13 13 14 14 14 14 14 14 13
42 41 41 42 43 44 45 46 46 46 44 43 42 43 43 43 43 42 40 38 35 32 30 28 25 21 17 15 13 11 10 11 12 12 13 14 14 15 16 16 15 14 13
38 39 40 40 41 42 41 41 41 40 40 41 41 40 39 38 37 35 33 30 27 25 23 21 19 15 12 9 8 9 9 11 12 14 15 16 17 18 18 16 14 11 10
36 37 37 37 37 37 37 38 38 38 38 37 36 35 33 32 31 29 26 23 21 19 17 15 12 9 8 7 7 8 10 12 14 16 17 18 18 17 16 13 11 10 9
33 33 33 34 35 36 36 36 35 34 33 32 30 29 28 27 25 22 20 18 16 13 10 7 5 5 5 6 7 9 12 14 16 17 18 18 17 16 15 13 12 11 11
31 32 34 35 35 34 34 33 31 29 28 26 25 24 23 21 19 18 16 14 9 6 3 3 4 5 6 7 9 11 13 15 16 17 18 18 19 18 18 16 14 13 13
31 32 33 33 32 31 29 27 25 24 22 21 20 19 18 17 15 14 13 9 5 3 3 5 6 7 7 8 10 12 13 14 16 17 18 19 20 20 19 17 16 16 16
31 31 30 29 27 25 23 22 20 19 18 17 17 16 15 13 12 10 7 4 2 5 7 8 8 8 8 10 11 12 14 15 16 17 18 20 20 20 19 18 17 16 16
29 28 26 25 23 20 18 17 16 15 15 15 14 13 12 11 8 6 3 4 7 9 10 10 9 9 10 10 11 13 14 15 16 17 18 20 21 20 20 19 18 17 17
26 24 23 21 19 17 15 13 13 12 12 11 10 10 9 7 5 4 5 9 11 11 11 10 10 10 10 11 11 13 14 15 15 16 18 21 22 22 22 20 19 18 17
22 21 20 18 16 14 12 11 10 9 8 7 7 7 6 5 5 7 10 12 12 11 11 10 10 10 10 11 12 13 14 15 15 16 18 20 22 23 23 22 21 20 19
21 19 17 15 13 11 10 8 7 6 5 4 5 5 5 6 8 11 13 13 12 11 10 10 10 10 11 11 12 13 14 15 15 16 17 19 21 23 23 24 23 23 22
19 17 15 13 10 9 7 6 4 3 3 4 4 6 7 9 12 14 14 13 12 11 10 10 10 10 10 11 12 13 14 15 15 16 17 19 20 22 23 24 24 24 25
19 16 14 12 10 8 6 5 5 5 5 6 7 9 10 12 13 14 13 12 11 11 11 10 10 11 11 12 13 14 15 15 16 16 17 18 20 21 23 24 24 24 25
20 18 15 13 12 10 9 8 8 8 9 9 10 11 13 14 14 13 12 10 10 10 10 10 11 11 11 12 14 15 15 16 16 17 17 18 19 21 23 24 25 25 24
22 20 18 16 14 13 12 12 12 12 13 13 14 14 15 14 13 12 11 10 10 10 10 10 10 11 12 12 14 15 15 16 17 17 17 18 19 20 21 23 23 24 24
25 23 21 19 18 17 17 17 16 16 16 16 16 16 15 14 13 11 11 10 10 10 10 10 11 11 12 13 14 14 14 15 15 16 16 17 18 19 20 21 22 22 23
28 27 25 24 22 22 21 20 19 18 18 17 16 15 14 13 12 11 10 10 10 10 10 11 11 12 12 13 13 14 14 14 14 14 14 15 16 17 18 19 20 20 21
Wind_Direction
285 287 289 289 289 289 289 288 289 289 291 292 293 294 296 296 296 296 297 297 299 300 300 299 298 298 297 296 294 294 294 294 294 293 293 292 290 289 286 284 282 278 274
284 286 287 287 287 287 287 287 288 289 291 293 294 295 296 296 296 297 297 298 300 301 301 301 299 298 296 296 296 296 296 297 297 297 296 294 292 289 286 285 283 279 275
286 287 287 286 286 286 286 286 287 288 290 291 293 294 295 296 297 298 299 301 302 302 301 300 299 297 297 298 298 299 299 300 300 300 298 295 292 289 288 286 283 280 277
290 288 287 286 285 285 285 285 286 288 290 291 293 294 295 297 299 301 302 302 302 302 301 299 299 299 299 300 301 302 302 303 302 302 300 296 292 290 289 287 285 283 279
292 290 288 286 285 285 285 286 287 289 290 292 294 295 298 300 301 302 303 302 302 300 300 300 300 301 302 303 304 305 306 306 306 304 302 298 293 291 292 291 289 285 282
292 290 289 288 287 287 288 288 289 291 292 294 296 298 300 301 302 302 302 300 300 300 301 301 302 304 305 306 308 309 311 312 312 310 307 304 300 299 299 298 296 292 287
291 290 290 290 289 289 289 290 292 293 295 295 297 299 300 301 301 300 300 300 301 301 301 302 304 306 308 309 312 314 316 318 318 318 317 314 312 310 308 305 302 299 293
292 292 291 290 289 289 290 292 294 295 296 297 299 299 299 299 299 300 300 301 301 301 302 304 307 309 311 313 316 319 321 324 327 329 328 326 325 322 319 314 311 307 301
294 293 291 290 290 290 292 293 295 295 297 298 299 299 299 300 301 301 301 301 302 303 305 308 311 314 316 318 322 325 328 334 339 340 338 335 331 327 322 317 312 308 303
293 292 291 291 292 292 293 294 296 297 298 299 300 301 301 301 301 302 302 303 304 306 309 312 316 319 323 327 333 338 343 347 348 347 344 339 334 329 325 321 318 313 306
293 293 294 294 295 296 296 298 300 300 301 301 302 302 302 302 302 303 304 304 306 307 309 312 316 323 332 341 347 353 358 358 354 351 347 342 338 334 331 330 331 329 325
295 295 296 297 298 299 300 301 302 302 303 303 303 303 303 303 304 306 307 308 309 308 308 311 318 333 347 357 6 9 5 0 357 355 352 349 345 344 346 351 358 0 1
298 299 301 302 302 303 303 304 304 304 304 304 304 304 305 307 308 309 310 311 311 308 308 316 340 5 19 24 20 14 9 6 5 6 6 6 6 10 17 23 28 34 39
305 305 305 305 305 305 305 304 304 304 304 304 306 307 309 311 312 314 315 317 320 318 327 16 44 50 49 38 27 20 16 16 19 21 23 23 24 27 32 39 45 50 49
309 308 307 307 306 305 304 303 304 304 306 308 310 312 313 314 316 319 321 328 341 22 69 77 76 69 54 40 31 27 27 29 32 34 32 33 34 35 41 47 51 56 56
312 310 309 308 307 306 305 305 306 308 310 312 313 316 318 319 321 322 327 342 59 92 92 87 79 67 55 45 39 38 39 41 43 43 41 39 40 41 46 51 54 58 59
317 315 314 313 312 310 309 308 308 309 311 313 317 321 324 329 334 343 14 90 105 102 95 87 76 68 60 52 48 49 50 51 52 50 49 47 47 48 50 54 57 59 61
323 322 320 319 318 316 314 312 311 311 312 317 322 328 336 348 10 46 95 109 106 101 93 83 75 69 63 57 58 60 58 60 59 56 55 54 54 54 55 57 60 63 65
330 328 326 324 322 320 318 316 315 316 318 323 332 344 357 23 56 90 106 108 104 97 88 79 72 68 64 63 67 67 65 66 65 62 60 58 57 58 59 60 63 66 69
338 334 331 329 326 324 322 321 323 327 337 347 1 18 38 67 88 102 107 106 100 91 81 74 70 68 69 71 75 74 70 69 68 65 62 59 58 59 61 63 66 70 74
345 342 340 340 341 341 341 347 360 14 24 33 49 61 72 87 100 107 107 102 93 83 75 70 68 69 74 79 82 80 76 74 72 68 65 61 60 61 62 63 66 71 75
359 359 1 5 9 15 21 30 45 57 66 77 80 81 88 99 107 110 107 99 87 77 72 70 70 72 77 84 88 86 81 79 76 71 67 64 62 62 64 65 66 69 73
15 18 23 28 34 41 49 61 73 78 83 88 89 92 98 104 107 107 103 94 82 74 69 71 74 76 81 89 93 91 86 83 79 74 70 68 66 66 67 67 67 69 71
28 32 37 41 47 54 63 73 80 85 89 92 94 97 101 104 105 103 97 86 78 72 72 74 78 81 87 94 98 97 92 87 83 79 74 71 70 69 69 69 69 69 71
39 42 45 51 58 64 70 76 82 86 89 92 95 98 100 102 101 97 90 81 76 74 75 79 84 88 94 100 104 103 98 94 90 85 80 75 73 71 71 71 70 70 70
46 49 53 58 64 68 72 76 79 83 86 89 91 94 96 96 94 90 84 79 77 78 82 86 88 92 98 104 107 107 104 99 95 89 84 80 76 73 72 70 70 70 70
Height
5774 5771 5768 5764 5761 5757 5753 5748 5744 5739 5735 5731 5726 5721 5715 5710 5704 5698 5693 5687 5681 5674 5667 5661 5654 5647 5639 5631 5623 5614 5605 5596 5591 5587 5575 5566 5559 5552 5547 5542 5538 5536 5535
5765 5761 5758 5754 5750 5745 5741 5736 5731 5726 5722 5717 5711 5706 5700 5695 5689 5684 5678 5672 5666 5659 5652 5645 5637 5630 5622 5613 5605 5595 5586 5576 5568 5564 5556 5547 5541 5535 5531 5527 5524 5522 5521
5754 5751 5746 5742 5738 5733 5728 5723 5718 5713 5708 5703 5698 5692 5686 5680 5675 5669 5663 5657 5650 5644 5637 5629 5621 5613 5605 5596 5587 5578 5568 5559 5550 5544 5539 5532 5527 5521 5518 5516 5513 5511 5510
5742 5738 5733 5729 5724 5719 5714 5709 5704 5699 5694 5689 5684 5678 5672 5666 5660 5654 5648 5642 5636 5628 5621 5613 5605 5597 5589 5581 5572 5562 5553 5545 5537 5530 5525 5520 5516 5511 5509 5507 5505 5503 5501
5728 5724 5720 5715 5710 5705 5700 5694 5689 5684 5679 5675 5669 5664 5658 5652 5646 5640 5634 5627 5620 5613 5606 5598 5591 5582 5574 5566 5558 5549 5541 5534 5527 5520 5515 5511 5508 5504 5502 5500 5498 5496 5494
5714 5709 5705 5700 5695 5690 5685 5679 5674 5670 5665 5660 5655 5649 5644 5638 5632 5625 5619 5613 5606 5600 5592 5585 5577 5569 5562 5554 5546 5539 5532 5525 5519 5514 5509 5505 5503 5500 5497 5495 5492 5490 5488
5699 5695 5690 5685 5680 5675 5670 5665 5661 5656 5651 5646 5641 5636 5630 5624 5618 5612 5605 5599 5593 5587 5580 5573 5566 5559 5552 5546 5539 5532 5526 5520 5515 5510 5507 5503 5500 5497 5494 5491 5488 5486 5484
5685 5680 5675 5670 5666 5661 5657 5652 5648 5643 5638 5633 5628 5623 5617 5611 5605 5599 5592 5586 5580 5574 5568 5562 5556 5551 5545 5539 5533 5528 5523 5517 5513 5509 5505 5502 5498 5495 5491 5488 5485 5483 5480
5671 5667 5662 5658 5653 5649 5644 5640 5635 5630 5625 5620 5615 5610 5604 5599 5593 5587 5581 5575 5569 5563 5558 5553 5549 5544 5539 5534 5529 5525 5521 5517 5512 5509 5505 5501 5497 5493 5490 5486 5483 5480 5477
5659 5655 5650 5646 5642 5637 5633 5628 5623 5618 5613 5608 5603 5598 5593 5587 5582 5576 5570 5565 5560 5555 5551 5547 5543 5539 5535 5531 5527 5524 5520 5517 5513 5509 5505 5501 5496 5492 5488 5484 5480 5476 5474
5648 5644 5639 5635 5630 5626 5621 5616 5611 5607 5602 5597 5592 5587 5582 5577 5572 5567 5562 5558 5553 5550 5546 5543 5539 5536 5533 5529 5526 5524 5520 5517 5513 5509 5505 5500 5495 5490 5485 5481 5477 5474 5471
5638 5634 5629 5625 5620 5615 5611 5606 5601 5597 5592 5587 5582 5577 5572 5568 5564 5559 5555 5551 5548 5545 5542 5540 5537 5534 5532 5529 5527 5524 5521 5518 5514 5509 5504 5499 5494 5489 5484 5480 5476 5473 5470
5629 5624 5619 5615 5610 5606 5601 5596 5592 5587 5582 5578 5573 5569 5565 5561 5557 5553 5550 5547 5544 5542 5539 5538 5536 5534 5532 5530 5528 5525 5522 5519 5515 5510 5505 5499 5494 5489 5484 5481 5477 5474 5472
5620 5615 5610 5606 5601 5596 5592 5587 5583 5579 5575 5571 5567 5563 5559 5556 5552 5549 5546 5543 5541 5539 5538 5537 5536 5534 5533 5531 5529 5527 5524 5520 5516 5512 5507 5502 5497 5492 5487 5484 5481 5478 5475
5613 5608 5602 5597 5592 5588 5583 5580 5576 5572 5569 5566 5562 5559 5556 5552 5549 5546 5543 5541 5540 5539 5538 5537 5536 5536 5534 5533 5531 5528 5526 5522 5519 5515 5511 5506 5501 5496 5492 5488 5485 5482 5480
5605 5600 5594 5589 5585 5580 5577 5573 5570 5567 5564 5562 5559 5556 5553 5550 5547 5544 5542 5541 5540 5539 5539 5539 5538 5537 5536 5535 5533 5531 5528 5525 5522 5519 5515 5511 5506 5502 5497 5494 5491 5488 5486
5597 5591 5586 5582 5578 5574 5571 5568 5566 5564 5561 5558 5556 5553 5550 5548 5545 5543 5542 5541 5541 5541 5541 5541 5540 5539 5538 5537 5535 5533 5531 5529 5526 5523 5520 5516 5512 5507 5503 5500 5497 5494 5492
5590 5585 5580 5576 5572 5569 5567 5564 5562 5560 5558 5556 5554 5552 5549 5547 5545 5543 5543 5543 5543 5543 5544 5543 5543 5542 5541 5540 5538 5536 5535 5533 5531 5528 5526 5522 5518 5514 5510 5507 5503 5501 5498
5585 5580 5575 5571 5568 5565 5563 5561 5559 5558 5556 5554 5553 5551 5549 5547 5546 5545 5545 5545 5546 5547 5547 5546 5545 5545 5544 5543 5541 5540 5538 5537 5535 5533 5531 5528 5525 5521 5517 5514 5511 5508 5505
5581 5576 5572 5568 5565 5562 5560 5559 5557 5556 5555 5553 5552 5551 5549 5548 5547 5547 5548 5549 5550 5550 5550 5549 5548 5548 5547 5546 5545 5544 5542 5541 5540 5539 5537 5534 5531 5528 5525 5521 5518 5515 5513
5578 5573 5569 5566 5563 5560 5558 5557 5556 5555 5554 5553 5552 5551 5551 5550 5550 5551 5552 5553 5553 5553 5553 5552 5551 5551 5550 5549 5548 5547 5547 5546 5545 5544 5542 5540 5538 5535 5532 5529 5526 5523 5521
5577 5572 5568 5564 5561 5559 5558 5556 5556 5555 5554 5554 5554 5553 5553 5553 5554 5555 5556 5557 5557 5556 5556 5555 5555 5554 5553 5553 5552 5552 5551 5551 5550 5549 5548 5546 5544 5542 5539 5536 5534 5531 5529
5576 5572 5568 5565 5562 5560 5559 5557 5557 5557 5556 5556 5556 5556 5557 5557 5558 5559 5560 5560 5560 5560 5559 5558 5558 5557 5557 5556 5556 5556 5556 5555 5555 5554 5553 5552 5550 5548 5546 5544 5542 5539 5537
5578 5574 5570 5567 5565 5563 5561 5560 5560 5560 5560 5560 5560 5561 5561 5562 5563 5564 5564 5564 5563 5563 5562 5562 5561 5560 5560 5560 5560 5560 5560 5560 5560 5560 5559 5558 5557 5555 5553 5551 5549 5548 5546
5583 5578 5574 5571 5569 5567 5566 5565 5565 5565 5565 5565 5565 5566 5566 5567 5567 5568 5568 5567 5567 5566 5566 5565 5564 5564 5564 5564 5564 5564 5565 5565 5565 5565 5565 5564 5563 5561 5560 5558 5557 5555 5554
5589 5585 5581 5578 5575 5574 5572 5572 5571 5571 5571 5571 5571 5571 5572 5572 5572 5572 5571 5571 5570 5569 5569 5568 5568 5568 5567 5568 5568 5569 5569 5570 5570 5570 5570 5569 5568 5567 5566 5565 5563 5562 5561